Temperature
15 15 15 14 14 14 14 14 14 13 13 13 12 12 12 12 12 12 12 12 12 12 12 12 11 11 11 11 11 11 11 10 10 10 10 10 10 10
14 14 14 14 14 14 14 14 14 14 13 13 12 12 12 12 12 12 12 12 12 12 12 11 11 11 11 11 10 10 10 10 10 10 10 9 9 9
14 14 14 14 14 14 14 14 14 13 13 13 12 12 12 12 12 12 12 12 12 11 11 11 11 11 10 10 10 10 10 10 9 9 9 9 9 9
14 14 14 14 14 14 14 14 13 13 13 13 12 12 12 12 12 12 12 12 11 11 11 11 10 10 10 10 10 10 10 9 9 9 9 9 9 9
14 14 14 14 14 14 13 13 13 13 13 13 12 12 12 12 12 12 11 11 11 11 11 10 10 10 10 10 9 9 9 9 9 9 9 9 8 8
14 14 14 14 14 13 13 13 13 13 13 12 12 12 12 11 11 11 11 11 11 10 10 10 10 10 10 9 9 9 9 9 9 8 8 8 8 8
14 14 13 13 13 13 13 13 13 12 12 12 12 12 11 11 11 11 11 10 10 10 10 10 10 9 9 9 9 9 9 8 8 8 8 8 8 7
14 13 13 13 13 13 13 13 12 12 12 12 12 12 11 11 11 11 10 10 10 10 10 10 9 9 9 9 9 8 8 8 8 8 8 7 7 7
13 13 13 13 13 13 13 13 12 12 12 12 12 11 11 11 11 10 10 10 10 10 9 9 9 9 9 8 8 8 8 7 7 7 7 7 7 7
13 13 13 13 13 13 12 12 12 12 12 11 11 11 11 11 10 10 10 10 10 9 9 9 9 8 8 8 8 8 7 7 7 7 7 7 6 6
13 13 12 12 12 12 12 12 12 12 11 11 11 11 11 10 10 10 10 9 9 9 9 8 8 8 8 8 8 7 7 7 7 6 6 6 6 6
13 12 12 12 12 12 12 12 12 11 11 11 11 11 10 10 10 9 9 9 9 8 8 8 8 7 7 7 7 7 7 7 6 6 6 6 6 5
12 12 12 12 12 11 11 11 11 11 11 11 10 10 10 10 10 9 9 8 8 8 8 7 7 7 7 7 7 7 6 6 6 6 6 5 5 5
12 12 12 11 11 11 11 11 10 10 10 10 10 10 10 9 9 9 8 8 8 7 7 7 7 7 6 6 6 6 6 6 6 5 5 5 5 5
11 11 11 11 11 11 10 10 10 10 10 10 9 9 9 9 8 8 8 8 8 7 7 7 6 6 6 6 6 6 5 5 5 5 5 5 4 4
11 11 11 11 10 10 10 10 10 9 9 9 9 8 8 8 8 8 7 7 7 7 7 6 6 6 5 5 5 5 5 5 5 4 4 4 4 4
11 11 11 10 10 10 10 10 9 9 9 8 8 8 8 7 7 7 7 6 6 6 6 6 6 5 5 5 5 4 4 4 4 4 4 4 4 3
10 10 10 10 10 9 9 9 9 9 8 8 8 7 7 7 7 6 6 6 6 6 5 5 5 5 5 4 4 4 4 4 3 3 3 3 3 3
10 10 10 9 9 9 9 9 8 8 8 7 7 7 7 6 6 6 6 5 5 5 5 4 4 4 4 4 4 3 3 3 3 3 2 2 2 2
9 9 9 9 9 8 8 8 8 8 7 7 7 7 6 6 6 5 5 5 5 5 4 4 4 4 3 3 3 3 2 2 2 2 2 2 2 2
9 9 9 8 8 8 8 8 7 7 7 7 6 6 6 6 5 5 5 5 5 4 4 4 4 3 3 2 2 2 2 2 1 1 1 1 1 1
8 8 8 8 8 8 7 7 7 7 7 6 6 6 5 5 5 5 4 4 4 4 4 4 3 3 2 2 2 2 2 1 1 1 1 1 1 1
8 8 8 7 7 7 7 7 6 6 6 6 6 5 5 5 5 4 4 4 4 4 3 3 3 2 2 2 2 1 1 1 1 1 1 1 1 0
Wind_Speed
3 3 2 1 2 2 2 3 4 2 1 2 1 1 1 1 1 2 2 2 2 2 2 3 4 4 5 5 6 6 6 7 7 8 8 9 9 9
2 3 3 2 2 2 2 2 3 4 2 2 2 2 1 1 1 2 1 2 2 2 2 3 3 3 4 4 5 5 6 6 7 7 7 8 8 9
2 3 2 2 2 2 2 2 2 3 3 1 1 1 1 1 2 2 2 2 2 2 2 2 2 2 2 3 4 4 5 5 5 6 7 7 8 8
2 2 1 2 2 1 2 2 2 2 3 2 0 1 1 0 1 1 2 2 1 1 1 1 1 1 1 2 2 3 3 4 4 5 6 7 7 8
3 3 2 3 2 1 2 2 1 2 2 3 1 1 1 1 1 1 2 1 1 1 1 1 1 1 1 1 1 2 2 3 4 4 5 6 6 7
2 2 2 3 4 3 2 2 2 3 3 3 1 0 0 1 1 0 1 1 1 1 0 1 1 1 1 1 1 1 2 3 3 4 4 4 5 6
1 0 1 2 4 3 3 3 4 3 3 2 1 0 0 0 1 1 1 1 2 1 0 1 1 1 2 3 2 3 2 2 3 4 4 4 5 5
2 1 1 2 2 3 3 4 5 5 4 3 2 2 3 2 2 2 1 0 2 1 0 2 0 1 3 3 4 3 3 3 3 3 4 4 5 5
3 2 1 1 2 2 3 3 2 3 5 5 4 4 4 4 3 2 2 2 3 2 1 2 1 2 4 4 5 4 4 4 4 4 3 4 5 5
2 2 2 1 1 2 3 2 2 1 1 2 3 4 3 3 4 3 3 1 2 1 2 2 2 2 3 4 5 5 5 5 5 4 4 5 5 5
1 2 2 2 1 4 4 2 2 2 2 1 0 1 1 2 4 3 1 1 2 2 1 2 2 2 2 3 4 5 5 6 6 6 6 5 5 5
1 1 2 2 2 4 4 3 1 1 1 2 3 3 2 1 1 3 3 1 1 3 2 1 1 1 2 2 3 4 4 5 6 5 5 5 4 3
2 1 1 2 3 4 4 3 3 1 1 1 1 2 2 2 1 1 2 3 2 3 2 2 1 1 2 2 3 3 3 3 3 4 5 6 5 3
2 2 1 2 2 2 2 1 2 2 2 1 1 1 1 2 2 1 0 1 2 3 3 3 2 2 2 2 3 3 3 3 2 2 4 5 5 4
2 3 2 2 1 0 0 1 2 2 2 1 1 1 2 1 0 1 2 2 2 2 1 2 2 2 2 3 3 3 3 3 2 2 3 3 3 3
2 2 2 1 1 0 1 0 1 2 2 2 2 2 1 1 1 1 1 2 2 3 3 2 2 2 2 2 3 3 3 2 2 3 3 3 4 4
3 2 1 1 1 1 1 1 1 0 1 1 1 1 1 1 2 1 1 1 1 2 3 3 2 0 1 2 2 3 3 3 3 3 2 3 4 4
5 2 1 1 2 2 2 1 1 1 2 2 2 2 2 2 2 2 1 1 2 3 3 2 2 2 2 2 3 3 2 3 3 3 2 3 4 5
4 3 3 3 3 3 3 2 2 2 2 2 2 3 3 3 2 2 2 2 3 3 3 2 1 1 2 4 4 3 3 3 2 3 3 3 5 5
3 3 4 4 3 3 3 3 3 2 2 2 3 3 3 3 3 3 3 3 3 3 3 2 3 3 4 5 4 4 4 4 3 4 4 4 4 6
4 4 4 4 4 4 4 4 3 3 3 3 3 3 3 3 3 3 3 4 3 3 4 4 4 4 2 1 2 4 4 6 6 5 4 3 4 3
4 4 4 4 4 4 4 4 3 4 4 4 4 4 4 3 4 4 3 3 3 3 4 4 2 1 1 3 5 5 5 5 6 7 7 6 3 3
5 4 4 4 4 4 4 4 4 4 4 4 4 4 4 4 3 3 3 3 3 3 3 3 3 2 3 3 4 5 5 5 4 4 5 8 9 9
Wind_Direction
110 106 101 99 104 108 125 139 140 138 268 276 292 294 209 171 151 110 97 110 109 102 95 84 71 63 56 47 40 35 32 29 26 22 19 16 14 14
105 103 98 96 89 91 109 114 126 139 168 244 244 256 202 109 100 99 94 93 106 104 106 102 86 74 60 52 44 36 30 26 23 20 18 14 11 11
91 108 109 107 101 95 98 100 108 120 137 271 329 342 67 84 76 75 71 83 104 111 107 107 92 78 66 52 43 35 28 20 16 13 12 12 9 7
125 114 111 108 97 96 104 106 121 133 140 152 334 360 15 146 109 89 74 69 109 111 104 117 101 62 46 38 35 31 21 13 7 6 7 6 3 1
168 160 163 133 127 131 130 127 128 122 127 142 169 350 359 24 45 42 56 46 45 16 58 84 63 35 34 38 10 9 11 2 353 354 356 356 356 357
167 174 176 164 171 168 155 152 132 116 116 125 130 33 351 356 77 42 341 326 310 323 347 334 337 339 322 316 298 311 326 340 347 346 344 343 343 346
92 108 184 173 180 170 158 160 144 134 132 136 159 159 258 253 235 225 234 299 305 274 353 308 323 336 319 310 295 290 303 327 339 338 336 332 331 332
121 58 30 88 103 122 131 153 159 158 168 170 187 203 231 226 208 198 192 188 291 273 191 283 225 277 279 275 276 286 293 308 312 319 325 327 323 324
134 123 88 71 86 87 82 72 95 174 180 175 188 213 214 215 190 196 209 212 235 238 157 263 278 269 279 274 265 271 283 295 301 299 306 321 321 319
143 145 131 103 114 113 103 72 36 3 253 173 195 218 222 204 189 191 195 214 282 293 156 229 260 263 281 279 268 267 274 286 291 291 295 308 313 309
139 120 136 138 125 121 111 100 41 349 13 46 163 222 225 187 150 114 100 93 294 288 228 196 249 276 283 277 279 276 275 284 288 286 284 291 303 307
98 114 148 146 143 141 138 140 158 282 2 26 29 22 34 37 161 165 174 189 243 268 256 187 234 251 289 279 282 287 288 283 285 288 288 288 300 319
165 189 217 170 150 161 160 171 205 198 157 104 29 5 15 26 33 154 181 186 209 246 246 177 213 228 231 276 292 281 282 289 294 294 298 295 292 285
186 203 209 179 171 162 168 195 164 109 93 77 47 355 341 330 334 20 341 208 218 232 228 186 201 220 233 270 280 295 294 295 288 290 308 307 291 280
178 182 183 175 157 122 205 155 132 127 124 122 245 274 281 279 9 40 28 42 28 339 293 218 193 228 220 239 257 268 286 293 283 282 296 291 279 278
162 142 127 111 83 5 24 58 148 177 176 201 230 255 273 286 287 305 321 331 332 325 338 311 217 198 238 252 250 270 266 271 286 276 278 287 295 285
140 111 96 76 19 330 325 302 261 201 218 219 220 246 259 262 276 290 278 296 274 280 306 332 359 352 234 229 248 258 270 280 275 279 274 277 279 283
133 149 184 207 228 239 250 271 271 250 241 233 232 235 242 247 263 282 272 260 267 269 275 285 317 344 346 317 233 233 258 274 284 278 261 266 276 282
151 190 209 220 231 233 234 238 252 248 234 229 241 247 247 248 255 263 265 273 275 274 274 267 273 274 287 289 287 238 230 266 284 286 264 253 265 272
195 210 224 229 232 234 236 240 246 248 240 239 241 242 240 248 258 255 251 256 268 275 278 263 244 240 242 255 265 277 254 237 253 269 277 274 275 284
221 227 229 230 234 234 237 236 235 237 240 238 241 241 240 244 255 259 258 256 261 264 267 266 260 251 245 266 284 282 280 268 254 250 262 275 287 289
227 232 235 235 236 236 237 238 241 243 240 241 246 245 241 239 245 249 249 255 262 260 265 274 277 264 239 249 265 271 280 295 296 281 266 251 246 252
232 234 234 235 235 235 237 240 243 246 242 243 246 245 241 244 246 243 243 245 253 266 277 278 279 270 261 252 261 270 275 284 291 299 295 292 284 283
Height
1552 1552 1552 1552 1552 1553 1553 1553 1553 1552 1553 1553 1553 1553 1553 1552 1551 1551 1550 1549 1548 1547 1546 1545 1544 1543 1541 1540 1538 1537 1535 1534 1532 1530 1529 1527 1525 1524
1552 1552 1553 1553 1553 1553 1553 1553 1553 1553 1552 1553 1553 1553 1552 1552 1551 1551 1550 1549 1548 1547 1546 1545 1544 1542 1541 1540 1538 1537 1535 1533 1532 1530 1528 1526 1524 1523
1552 1553 1553 1553 1553 1553 1553 1552 1552 1552 1552 1552 1552 1552 1552 1551 1551 1550 1550 1549 1548 1547 1546 1544 1543 1542 1541 1539 1538 1536 1535 1533 1531 1529 1527 1525 1523 1522
1552 1552 1552 1552 1552 1552 1552 1552 1552 1552 1552 1551 1552 1551 1551 1551 1550 1550 1549 1548 1547 1546 1545 1544 1543 1541 1540 1539 1537 1535 1534 1532 1530 1528 1526 1524 1522 1521
1552 1552 1552 1552 1552 1552 1551 1551 1551 1551 1551 1551 1550 1550 1550 1550 1549 1549 1548 1547 1546 1545 1544 1543 1542 1540 1539 1537 1536 1534 1533 1531 1529 1527 1525 1523 1521 1520
1551 1551 1551 1551 1551 1551 1550 1550 1550 1550 1550 1549 1549 1549 1549 1549 1548 1548 1547 1546 1545 1544 1543 1542 1541 1539 1537 1536 1534 1533 1531 1530 1528 1526 1524 1522 1520 1518
1550 1550 1550 1550 1550 1550 1549 1549 1549 1549 1548 1548 1548 1548 1548 1547 1547 1546 1545 1544 1543 1542 1541 1540 1539 1537 1536 1534 1533 1531 1530 1528 1526 1524 1522 1520 1518 1517
1548 1549 1549 1549 1549 1549 1548 1548 1548 1548 1547 1547 1546 1546 1546 1545 1545 1544 1543 1542 1541 1541 1539 1538 1537 1535 1534 1532 1531 1529 1528 1526 1524 1522 1520 1518 1517 1515
1547 1547 1547 1547 1547 1547 1547 1547 1547 1546 1546 1546 1545 1544 1544 1543 1543 1542 1541 1540 1539 1538 1536 1535 1534 1532 1531 1529 1528 1527 1525 1523 1522 1520 1518 1516 1515 1513
1545 1545 1545 1546 1546 1546 1545 1545 1545 1544 1544 1543 1543 1542 1542 1541 1540 1540 1539 1537 1536 1535 1534 1532 1530 1529 1528 1527 1525 1524 1522 1520 1519 1517 1515 1514 1512 1510
1543 1543 1544 1544 1544 1544 1543 1543 1542 1542 1542 1541 1540 1540 1539 1538 1537 1536 1535 1534 1532 1531 1531 1529 1527 1526 1524 1523 1522 1521 1519 1517 1516 1514 1512 1510 1508 1507
1541 1541 1541 1541 1541 1541 1541 1540 1539 1539 1539 1538 1538 1537 1536 1535 1534 1533 1532 1531 1529 1528 1527 1526 1524 1523 1521 1519 1518 1517 1516 1514 1512 1510 1508 1506 1505 1503
1539 1539 1539 1539 1539 1539 1538 1538 1537 1537 1536 1535 1534 1533 1532 1532 1531 1530 1529 1528 1526 1525 1524 1523 1521 1519 1518 1516 1514 1513 1512 1510 1508 1507 1505 1503 1501 1499
1536 1536 1536 1536 1536 1536 1535 1535 1534 1534 1533 1532 1531 1530 1529 1528 1527 1526 1525 1524 1523 1522 1521 1519 1517 1516 1514 1512 1510 1509 1508 1506 1504 1502 1501 1499 1497 1495
1533 1534 1534 1533 1533 1533 1532 1532 1531 1530 1529 1528 1527 1526 1526 1525 1524 1523 1521 1520 1519 1518 1517 1515 1514 1512 1511 1509 1507 1505 1503 1501 1500 1498 1496 1494 1492 1490
1530 1530 1531 1530 1530 1530 1529 1528 1527 1527 1526 1525 1524 1523 1522 1521 1520 1519 1517 1516 1514 1513 1512 1511 1509 1508 1506 1504 1503 1501 1499 1497 1495 1493 1491 1489 1488 1486
1526 1526 1526 1526 1526 1526 1525 1525 1524 1523 1522 1522 1521 1519 1518 1517 1516 1514 1513 1512 1510 1508 1507 1506 1505 1504 1502 1500 1498 1496 1495 1493 1491 1489 1486 1484 1482 1481
1523 1522 1522 1522 1522 1522 1522 1521 1520 1520 1519 1518 1517 1516 1514 1513 1512 1511 1509 1508 1506 1505 1503 1502 1500 1498 1497 1495 1495 1492 1490 1488 1486 1485 1482 1479 1477 1476
1518 1518 1518 1518 1518 1518 1518 1517 1516 1516 1515 1514 1513 1512 1510 1509 1508 1506 1505 1504 1502 1501 1499 1498 1496 1494 1492 1489 1488 1488 1486 1484 1482 1480 1478 1475 1472 1470
1514 1514 1514 1514 1514 1514 1513 1513 1512 1511 1510 1509 1508 1507 1506 1505 1504 1502 1501 1500 1498 1496 1495 1493 1492 1490 1488 1487 1484 1482 1482 1480 1477 1475 1473 1471 1468 1466
1509 1510 1510 1510 1510 1509 1509 1508 1507 1507 1506 1505 1504 1503 1502 1501 1499 1498 1497 1495 1494 1492 1490 1488 1487 1486 1484 1482 1479 1477 1476 1475 1473 1471 1468 1466 1463 1461
1505 1505 1505 1505 1505 1505 1504 1503 1503 1502 1501 1500 1499 1498 1497 1496 1495 1494 1492 1491 1489 1487 1485 1484 1482 1481 1479 1477 1474 1472 1470 1469 1468 1467 1465 1463 1460 1456
1500 1500 1500 1500 1500 1500 1499 1498 1497 1496 1495 1494 1493 1493 1492 1491 1490 1489 1488 1486 1484 1482 1480 1479 1477 1475 1473 1472 1470 1467 1466 1464 1462 1460 1459 1458 1457 1454